Overview Statistics Trail Chart Weather Telemetry Raw packets
 

This is the latest recevied weather packets stored in our database for station/object ES0THZ-13. If no packets are shown the sender has not sent any weather packets the latest 10 day(s).

<< 24 25 26 27 28 29 30 >>
Time Temp. Humidity Pressure Rain* Wind** Luminosity Snow
1787943286 18.89° C 80% 1014.3 hPa - - - -
1787942226 18.89° C 80% 1015.3 hPa - - - -
1787941181 18.89° C 80% 1015.2 hPa - - - -
1787940216 18.89° C 80% 1014.7 hPa - - - -
1787939184 18.89° C 80% 1014.8 hPa - - - -
1787938121 18.89° C 79% 1015.6 hPa - - - -
1787937016 18.89° C 79% 1015.4 hPa - - - -
1787935926 19.44° C 78% 1015.7 hPa - - - -
1787934877 19.44° C 78% 1015.9 hPa - - - -
1787933761 19.44° C 78% 1015.9 hPa - - - -
1787932651 19.44° C 77% 1016.5 hPa - - - -
1787930426 20.56° C 76% 1016.8 hPa - - - -
1787929341 21.11° C 75% 1017.2 hPa - - - -
1787928166 21.67° C 74% 1017.4 hPa - - - -
1787927126 22.22° C 73% 1017 hPa - - - -
1787926061 21.67° C 74% 1017.1 hPa - - - -
1787925044 22.22° C 73% 1016.2 hPa - - - -
1787923971 22.22° C 73% 1017.6 hPa - - - -
1787922964 22.22° C 73% 1017.1 hPa - - - -
1787921841 22.78° C 72% 1018.5 hPa - - - -
1787920721 23.89° C 72% 1017.8 hPa - - - -
1787919561 22.78° C 72% 1018.5 hPa - - - -
1787918441 23.33° C 72% 1017.4 hPa - - - -
1787917256 23.33° C 73% 1019.6 hPa - - - -
1787916201 23.33° C 73% 1019.1 hPa - - - -

* Rain since midnight (hover to see other rain measurements)
** Current wind speed in m/s (hover to see current wind gust speed)